Regional Weather Roundup
Issued by NWS Kansas City/Pleasant Hill, MO

Home | Current Version | Previous Version | Graphics & Text | Print | Product List | Glossary Off
Versions: 1 2 3 4 5 6 7 8 9 10 11 12 13 14 15 16 17 18 19 20 21 22 23 24 25 26 27 28

000
ASUS43 KEAX 222110
RWREAX

WEATHER ROUNDUP FOR EASTERN KANSAS AND NORTHWEST MISSOURI
NATIONAL WEATHER SERVICE KANSAS CITY/PLEASANT HILL MO
300 PM CST MON JAN 22 2018

KSZ040-057-103>105-MOZ028-029-037-043-222200-
...KANSAS CITY METROPOLITAN AREA...

CITY           SKY/WX    TMP DP  RH WIND       PRES   REMARKS
K.C. INTL      FLURRIES  34  32  92 W16G23    29.44R WCI  24
K.C. DOWNTOWN  CLOUDY    37  32  82 W15G23    29.46R WCI  28
LEES SUMMIT    CLOUDY    36  34  92 W20G26    29.46R WCI  25
OLATHE - IXD   CLOUDY    33  31  92 W21G26    29.50R WCI  21
OLATHE - OJC   CLOUDY    33  32  96 W18G28    29.47R WCI  22
LAWRENCE       CLOUDY    34  30  85 W18G28    29.50R WCI  23

$$

MOZ001>008-011>017-020>025-030>033-038>040-044>046-053-054-222200-
...NORTHERN AND CENTRAL MISSOURI...

CITY           SKY/WX    TMP DP  RH WIND       PRES   REMARKS
ST. JOSEPH     LGT SNOW  34  34 100 W12       29.42R FOG     WCI  25
MOSBY          DRIZZLE   36  34  93 W10G16    29.44R WCI  28
WARRENSBURG    DRIZZLE   37  34  87 SW15G24   29.46R WCI  28
WHITEMAN AFB   LGT RAIN  38  34  87 SW16G26   29.42R WCI  29
CLINTON        LGT RAIN  39  36  87 W24G32    29.51R WCI  28
SEDALIA        LGT RAIN  40  36  86 SW23G35   29.48S WCI  30
WARSAW         NOT AVBL
CHILLICOTHE      N/A     37  34  89 S13       29.42S WCI  29
KIRKSVILLE     LGT RAIN  38  34  85 SW13      29.44R WCI  30

$$

MOZ041-047>049-056>058-063>065-088>090-097-222200-
...EASTERN AND SOUTHERN MISSOURI...

CITY           SKY/WX    TMP DP  RH WIND       PRES   REMARKS
ST. LOUIS INTL MOSUNNY   55  27  34 W25G33    29.48R
SPIRIT OF STL  PTSUNNY   51  31  46 W24G35    29.51R
COLUMBIA       CLOUDY    41  31  67 S20G29    29.50S WCI  32
JEFFERSON CITY CLOUDY    43  31  62 S12G22    29.53S
ROLLA          CLOUDY    41  28  60 SW22G32   29.56R WCI  31
OSAGE BEACH    LGT RAIN  42  30  62 SW20G31   29.54F WCI  33
SPRINGFIELD    CLOUDY    41  30  65 SW26G43   29.59R WCI  30
BRANSON        CLOUDY    41  27  56 SW16G29   29.67R WCI  33
JOPLIN         CLOUDY    40  31  70 W23G40    29.65R WCI  30
WEST PLAINS    CLOUDY    45  27  49 SW20G31   29.64R

$$

IAZ060-094-KSZ022-034>040-054-083-096-NEZ052-066-093-222200-
...KANSAS...SOUTHEAST NEBRASKA AND IOWA...

CITY           SKY/WX    TMP DP  RH WIND       PRES   REMARKS
TOPEKA         LGT SNOW  32  31  96 W15G24    29.52R VSB 3/4 WCI  22
MANHATTAN      SNOW      32  29  88 NW9G21    29.61R VSB 1/2 WCI  24
EMPORIA        LGT SNOW  33  29  85 NW17G30   29.60R FOG     WCI  22
WICHITA        CLOUDY    40  28  62 NW30G46   29.74R WCI  28
OMAHA          LGT SNOW  32  31  96 N24G37    29.52R VSB 3/4 WCI  19
LINCOLN        HVY SNOW  29  27  92 N32G47    29.58R VSB 1/4 WCI  13
FALLS CITY     CLOUDY    33  31  92 NW21      29.44R FOG     WCI  21
LAMONI         MIX PCPN  36  34  92 S9        29.37R WCI  29
DES MOINES     LGT RAIN  38  36  92 S16       29.40R FOG     WCI  29

$$





USA.gov is the U.S. government's official web portal to all federal, state and local government web resources and services.